Reading, PA

4:22 AM EST on November 12, 2019 (GMT -0500)
Reading Regional-Spaatz

Weather History for KRDG - July, 2019

Change the Weather History Date:

Thursday, July 25, 2019

  Actual Average Record
Temperature  
Mean Temperature 74 °F 75 °F  
Max Temperature 84 °F 85 °F 97 °F (2016)
Min Temperature 63 °F 64 °F 52 °F (1903)
Degree Days  
Heating Degree Days 0 0  
Month to date heating degree days 0  
Since 1 June heating degree days 24  
Since 1 July heating degree days 0  
Cooling Degree Days 8 10  
Month to date cooling degree days 247  
Year to date cooling degree days 496  
Since 1 June cooling degree days 436  
Growing Degree Days 24 (Base 50)    
Moisture  
Dew Point 60 °F    
Average Humidity 66    
Maximum Humidity 97    
Minimum Humidity 37    
Precipitation  
Precipitation 0.00 in 0.15 in 2.42 in (1916)
Month to date precipitation 3.68  
Year to date precipitation 24.48  
Sea Level Pressure  
Sea Level Pressure 30.12 in    
Wind  
Wind Speed 3 mph (NNW)    
Max Wind Speed 8 mph    
Max Gust Speed -    
Visibility 10 miles    
Events      
T = Trace of Precipitation, MM = Missing Value Source: NWS Daily Summary

Daily Weather History Graph

Daily Weather History Graph

Search for Another Location

Airport or City:

Astronomy

Jul. 25, 2019 Rise Set
Actual Time 5:54 AM EDT 8:25 PM EDT
Civil Twilight 5:23 AM EDT 8:56 PM EDT
Nautical Twilight 4:44 AM EDT 9:35 PM EDT
Astronomical Twilight 4:01 AM EDT 10:18 PM EDT
Moon 12:38 AM EDT (7/25) 2:04 PM EDT (7/25)
Length of Visible Light 15h 33m
Length of Day
14h 30m
Last Quarter, 44% of the Moon is Illuminated
Jul 25
Last Quarter
Jul 31
New
Aug 7
First Quarter
Aug 15
Full
Aug 23
Last Quarter

Hourly Weather History & Observations

Time (EDT) Temp. Heat Index Dew Point Humidity Pressure Visibility Wind Dir Wind Speed Gust Speed Precip Events Conditions
12:54 AM 66.9 °F - 63.0 °F 87% 30.04 in 10.0 mi Calm Calm - N/A   Clear
1:54 AM 64.9 °F - 63.0 °F 93% 30.04 in 10.0 mi Calm Calm - N/A   Clear
2:54 AM 64.9 °F - 62.1 °F 90% 30.05 in 10.0 mi NW 3.5 mph - N/A   Clear
3:54 AM 63.0 °F - 62.1 °F 97% 30.05 in 10.0 mi Calm Calm - N/A   Clear
4:54 AM 63.0 °F - 61.0 °F 93% 30.06 in 10.0 mi NW 4.6 mph - N/A   Clear
5:54 AM 63.0 °F - 61.0 °F 93% 30.08 in 10.0 mi Calm Calm - N/A   Clear
6:54 AM 64.9 °F - 62.1 °F 90% 30.10 in 10.0 mi West 3.5 mph - N/A   Clear
7:54 AM 68.0 °F - 61.0 °F 78% 30.12 in 10.0 mi North 5.8 mph - N/A   Clear
8:54 AM 73.0 °F - 63.0 °F 71% 30.14 in 10.0 mi North 5.8 mph - N/A   Clear
9:54 AM 75.9 °F - 62.1 °F 62% 30.14 in 10.0 mi NNW 6.9 mph - N/A   Clear
10:54 AM 79.0 °F - 61.0 °F 54% 30.15 in 10.0 mi Variable 3.5 mph - N/A   Clear
11:54 AM 81.0 °F 81.7 °F 61.0 °F 50% 30.14 in 10.0 mi NW 5.8 mph - N/A   Clear
12:54 PM 82.0 °F 82.0 °F 57.9 °F 44% 30.14 in 10.0 mi Variable 3.5 mph - N/A   Partly Cloudy
1:54 PM 84.0 °F 83.5 °F 57.9 °F 41% 30.14 in 10.0 mi NW 8.1 mph - N/A   Partly Cloudy
2:54 PM 84.9 °F 83.9 °F 57.0 °F 38% 30.14 in 10.0 mi North 8.1 mph - N/A   Scattered Clouds
3:54 PM 84.0 °F 83.3 °F 57.0 °F 40% 30.13 in 10.0 mi NNE 8.1 mph - N/A   Scattered Clouds
4:54 PM 84.0 °F 83.0 °F 55.9 °F 38% 30.13 in 10.0 mi NNE 6.9 mph - N/A   Partly Cloudy
5:54 PM 84.0 °F 82.9 °F 55.0 °F 37% 30.13 in 10.0 mi WNW 3.5 mph - N/A   Partly Cloudy
6:54 PM 82.0 °F 81.6 °F 55.9 °F 41% 30.14 in 10.0 mi NNE 4.6 mph - N/A   Partly Cloudy
7:54 PM 80.1 °F 80.6 °F 57.9 °F 47% 30.16 in 10.0 mi Calm Calm - 0.00 in   Partly Cloudy
8:54 PM 75.9 °F - 63.0 °F 64% 30.17 in 10.0 mi Calm Calm - N/A   Clear
9:54 PM 71.1 °F - 64.0 °F 78% 30.19 in 10.0 mi Calm Calm - N/A   Clear
10:54 PM 71.1 °F - 63.0 °F 75% 30.19 in 10.0 mi Calm Calm - N/A   Clear
11:54 PM 69.1 °F - 63.0 °F 81% 30.19 in 10.0 mi Calm Calm - N/A   Clear